www.pogodaiklimat.ru

Погода и климат >> Архив погоды >> Россия >> Пермский край >> Усть-Черная


ПОГОДА в Усть-Черной

  • Прогноз погоды в Усть-Черной
  • Монитор погоды в Усть-Черной

АРХИВ ПОГОДЫ в Усть-Черной

Время (UTC), дата Ветер
(напр.,м/с)
 
Видим.   Явления Облачность Т
(С)
Тd
(С)
f
(%)
Тe
(С)
Тes
(С)
Комфортность P
(гПа)
Po
(гПа)
Тmin
(С)
Tmax
(С)
R
(мм)
R24
(мм)
S
(см)
09 13.01 Ю 2 50 км слаб. снег [диам. гололёда мм] 10/0 2000 м
[As trans]
-10.9 -12.5 88 -15 -15 990.7 967.4
12 13.01 Ю 2 50 км слаб. снег [диам. гололёда мм] 10/0 2000 м
[As op Ci fib]
-10.8 -12.2 89 -15 -15 991.5 968.2
15 13.01 Ю 3 2000 м снег [диам. гололёда мм] 10/0 2000 м
[As op]
-11.1 -12.5 89 -17 -17 992.8 969.4 -10.6 0.9
18 13.01 Ю 3 4000 м слаб. снег [диам. гололёда мм] 10/0 2000 м
[As op]
-11.6 -13.2 88 -18 -18 993.6 970.2
21 13.01 Ю 3 2000 м снег [диам. гололёда мм] 10/0 2000 м
[As op]
-12.0 -13.6 88 -18 -18 995.1 971.6
00 14.01 Ю 3 4000 м слаб. снег [диам. гололёда мм] 10/0 2000 м
[As op]
-12.1 -13.7 88 -18 -18 996.0 972.5
03 14.01 Ю 3 4000 м слаб. снег [диам. гололёда мм] 10/0 2000 м
[As op]
-11.7 -13.3 88 -18 -18 996.6 973.1 -12.3 0.4 54
06 14.01 Ю 3 50 км {снег} [диам. гололёда мм] 10/10 600 м
[Sc]
-10.9 -12.4 89 -17 -17 998.3 974.9
09 14.01 Ю 3 50 км [диам. гололёда мм] 10/10 600 м
[Sc]
-9.6 -11.5 86 -16 -16 999.3 975.9
12 14.01 Ю 2 50 км слаб. снег [диам. гололёда мм] 10/0 600 м
[As op]
-10.1 -11.5 89 -15 -15 1000.8 977.4
15 14.01 Ю 2 50 км {снег} [диам. гололёда мм] 10/0 600 м
[As op]
-9.3 -10.5 91 -14 -14 1001.4 978.0 -9.3 0.4
18 14.01 Ю 1 50 км {снег} [диам. гололёда мм] 10/0 600 м
[As op]
-9.3 -10.4 92 -12 -12 1002.2 978.8
21 14.01 Ю 2 50 км [диам. гололёда мм] 10/0 600 м
[As op]
-8.5 -9.7 91 -13 -13 1002.5 979.1
00 15.01 Ю 2 50 км [диам. гололёда мм] 10/0 600 м
[As op]
-8.4 -9.6 91 -13 -13 1002.7 979.3
03 15.01 Ю 2 4000 м слаб. снег [диам. гололёда мм] 10/0 600 м
[As op]
-8.7 -9.8 92 -13 -13 1002.2 978.9 -9.3 0.3 54
06 15.01 Ю 2 10 км слаб. снег [диам. гололёда мм] 10/0 2000 м
[As op]
-8.5 -9.8 90 -13 -13 1002.3 979.0
09 15.01 Ю 3 50 км слаб. снег [диам. гололёда мм] 10/8 600 м
[Sc As trans]
-7.8 -9.2 90 -14 -14 1002.6 979.3
12 15.01 Ю 2 50 км слаб. снег [диам. гололёда мм] 10/10 600 м
[Sc]
-7.3 -8.7 90 -12 -12 1002.8 979.5
15 15.01 Ю 3 4000 м слаб. снег [диам. гололёда мм] 10/10 600 м
[Sc]
-7.6 -9.0 90 -13 -13 1003.0 979.7 -7.2 1
18 15.01 Ю 2 50 км {снег} [диам. гололёда мм] 10/10 600 м
[Sc]
-7.7 -9.0 90 -12 -12 1003.0 979.7
21 15.01 Ю 2 50 км [диам. гололёда мм] 10/10 300 м
[St]
-8.1 -9.2 92 -13 -13 1003.4 980.1
00 16.01 Ю 2 4000 м слаб. снег [диам. гололёда мм] 10/0 2000 м
[As op]
-7.9 -8.8 93 -12 -12 1003.6 980.3
03 16.01 Ю 2 4000 м слаб. снег [диам. гололёда мм] 10/0 2000 м
[As op]
-7.9 -8.9 93 -12 -12 1003.8 980.5 -8.1 0.3 54
06 16.01 Ю 2 50 км {снег} 10/0 2000 м
[As op]
-6.5 -7.4 93 -11 -11 1004.8 981.6
09 16.01 Ю 2 50 км 10/0 2000 м
[As op]
-4.4 -5.2 94 -9 -9 1004.9 981.9
12 16.01 ЮВ 2 20 км снег 10/0 2000 м
[As op]
-3.7 -4.3 96 -8 -8 1003.1 980.2
15 16.01 ЮВ 3 2000 м снег 10/0 600 м
[As op]
-3.4 -4.0 96 -9 -9 999.6 976.7 -3.4 2
18 16.01 ЮВ 3 2000 м снег 10/0 600 м
[As op]
-3.4 -3.8 97 -9 -9 996.2 973.4
21 16.01 Ю 4
{10}
2000 м снег {метель} 10/0 600 м
[As op]
-3.3 -3.8 96 -10 -10 993.0 970.4
00 17.01 Ю 3
{11}
4000 м слаб. снег {метель} 10/0 600 м
[As op]
-3.7 -5.0 91 -9 -9 993.7 971.0
03 17.01 Ю 3 2000 м снег {метель} 10/0 600 м
[As op]
-4.1 -4.9 94 -10 -10 994.4 971.6 -4.1 6 56
06 17.01 ЮЗ 3 50 км в посл. час снег {метель} 8/6 600 м
[Sc Ac trans]
-5.3 -6.5 91 -11 -11 996.6 973.7 -5.4
09 17.01 ЮЗ 4 50 км слаб. снег 10/10 600 м
[Sc]
-6.5 -9.0 82 -13 -13 998.1 975.0
12 17.01 ЮЗ 3 50 км слаб. снег 10/10 600 м
[Sc]
-7.5 -9.3 87 -13 -13 999.2 976.1
15 17.01 ЮЗ 3 4000 м слаб. снег 10/10 600 м
[Sc]
-7.3 -8.8 89 -13 -13 999.6 976.4 -4.1 0.4
18 17.01 ЮЗ 4
{10}
50 км {снег} 10/0 2000 м
[As op]
-6.9 -8.3 90 -14 -14 999.8 976.7
21 17.01 Ю 4
{10}
4000 м слаб. снег 10/0 2000 м
[As op]
-7.0 -8.8 87 -14 -14 999.1 976.0
00 18.01 Ю 3
{10}
2000 м снег {метель} 10/0 600 м
[As op]
-7.5 -8.8 90 -13 -13 997.4 974.3
03 18.01 Ю 3 2000 м снег {метель} 10/0 600 м
[As op]
-7.6 -9.0 90 -13 -13 994.8 971.8 -7.7 0.9 57
06 18.01 Ю 3 4000 м снег {метель} 10/0 600 м
[As op]
-7.3 -8.5 91 -13 -13 992.5 969.5
09 18.01 Ю 4 10 км снег {метель} 10/0 600 м
[As op]
-6.6 -7.9 90 -13 -13 991.5 968.6
12 18.01 ЮЗ 4 10 км снег {метель} 10/0 600 м
[As op]
-5.2 -6.4 91 -12 -12 992.0 969.2
15 18.01 ЮЗ 4
{10}
50 км {снег, метель} 10/10 600 м
[Sc]
-2.6 -4.1 89 -9 -9 994.5 971.9 -2.6 4
18 18.01 ЮЗ 4 4000 м слаб. снег {метель} 10/10 600 м
[Sc]
-2.1 -3.3 91 -8 -8 995.6 972.9
21 18.01 ЮЗ 3 4000 м слаб. снег 10/10 600 м
[Sc]
-2.7 -3.4 95 -8 -8 997.5 974.8
00 19.01 ЮЗ 2
{10}
4000 м слаб. снег 10/10 600 м
[Sc]
-2.6 -3.2 96 -7 -7 997.8 975.1
03 19.01 штиль 0 4000 м слаб. снег 10/10 600 м
[Sc]
-3.5 -4.0 96 -5 -5 997.5 974.8 -3.5 3 67
06 19.01 В 1 2000 м сильн. снег 10/0 600 м
[As op]
-3.8 -4.2 97 -6 -6 995.9 973.1 -3.8
09 19.01 Ю 2 2000 м снег 10/0 600 м
[As op]
-2.6 -3.2 96 -7 -7 995.2 972.5
12 19.01 З 2 50 км {снег} 10/10 600 м
[Sc]
-5.8 -6.7 93 -10 -10 999.2 976.2
15 19.01 З 2 4000 м слаб. снег 9/9 600 м
[Sc]
-7.3 -8.4 92 -12 -12 1002.4 979.2 -2.6 6
18 19.01 ЮЗ 2 4000 м слаб. снег 10/10 600 м
[Sc]
-9.2 -10.7 89 -14 -14 1005.0 981.5
21 19.01 Ю 2 50 км {снег} ясно -14.1 -15.0 93 -19 -19 1006.6 982.7
00 20.01 Ю 2 50 км {снег} 10/9 600 м
[Sc As trans]
-13.3 -14.6 90 -18 -18 1007.1 983.2
03 20.01 Ю 1 4000 м слаб. снег 10/10 600 м
[Sc]
-14.3 -15.7 89 -17 -17 1007.0 983.1 -14.3 0.2 65
06 20.01 ЮЗ 2 50 км {снег} 10/5 600 м
[Sc Ac trans Cc]
-15.5 -16.8 90 -21 -21 1007.8 983.7 -17.2

 

Местоположение метеостанции Усть-Черная (Пермский край, Россия): широта 60.47 долгота 52.63 высота над уровнем моря 183 м.

В архиве по умолчанию представлена погода в Усть-Черной за последнюю неделю. Архивные данные за месяц целиком и за предыдущие месяцы, начиная с января 2011 года, Вы можете получить, выбрав интересующий диапазон дат из раскрывающегося списка и нажав кнопку "Ввод!".


*Определитесь, кто Вы:
робот инопланетянин человек

Внимание! Время в таблицах - всемирное. Для получения местного времени необходимо прибавить поправку, которая равна 5 ч.

Смотрите также архив погоды в соседних городах и на ближайших метеорологических станциях:

Погода в Койгородке (Коми, Россия) (91 км)
Погода в Гайнах (Пермский край, Россия) (97 км)
Погода в Кирсе (Кировская область, Россия) (126 км)
Погода в Кочево (Пермский край, Россия) (141 км)
Погода в Косе (Пермский край, Россия) (143 км)
Погода в Усть-Куломе (Коми, Россия) (146 км)
Погода в Пустоши (Коми, Россия) (147 км)
Погода в Нагорске (Кировская область, Россия) (163 км)
Погода в Объячеве (Коми, Россия) (164 км)
Погода в Сыктывкаре (Коми, Россия) (167 км)

Пояснения к столбцам:

Ветер - указаны скорость ветра в м/с - средняя за 10 мин, порывы в срок и между сроками (в фигурных скобках) и направление, откуда дует ветер: С - северный, СВ - северо-восточный, В - восточный, ЮВ - юго-восточный, Ю - южный, ЮЗ - юго-западный, З - западный, СЗ - северо-западный.
Видимость - горизонтальная дальность видимости в метрах или километрах. При видимости от 1 до 10 км при отсутствии осадков обычно наблюдается дымка, при ухудшении видимости до 1 км и менее - туман. В сухую погоду видимость может ухудшаться дымом, пылью или мглою.
Явления - указаны атмосферные явления, наблюдавшиеся в срок или в последний час перед сроком; фигурными скобками обозначены явления, наблюдавшиеся между сроками (за 1-3 часа до срока); квадратными скобками обозначены град или гололедные отложения с указанием их диаметра в мм.
Облачность - указаны через наклонную черту общая и нижняя облачность в баллах и высота нижней границы облаков в метрах; квадратными скобками обозначены формы облаков: Ci - перистые, Cs - перисто-слоистые, Cc - перисто-кучевые, Ac - высококучевые, As - высокослоистые, Sc - слоисто-кучевые, Ns - слоисто-дождевые, Cu - кучевые, Cb - кучево-дождевые. Подробнее классификацию облаков см. в Атласе облаков (PDF).
T - Температура воздуха - температура, измеренная на высоте 2 м над землей.
Td - Температура точки росы - температура, при понижении до которой содержащийся в воздухе водяной пар достигнет насыщения.
f - Относительная влажность воздуха - влажноcть воздуха, измеренная на высоте 2 м над землей.
Te - Эффективная температура - температура, которую ощущает одетый по сезону человек в тени. Характеристика душности погоды. При расчете учитывается влияние влажности воздуха и скорости ветра на теплоощущения человека.
Tes - Эффективная температура на солнце - температура, которую ощущает человек, с поправкой на солнечный нагрев. Характеристика знойности погоды. Зависит от высоты солнца над горизонтом, облачности и скорости ветра. Ночью, в пасмурную погоду, а также при ветре 12 м/с и более поправка равна нулю.
P - Атмосферное давление - приведенное к уровню моря атмосферное давление.
Po - Атмосферное давление - измеренное на уровне метеостанции атмосферное давление.
Tmin - Минимальная температура - минимум температуры воздуха на высоте 2 м над землей.
Tmax - Максимальная температура - максимум температуры воздуха на высоте 2 м над землей.
R - Количество осадков - Количество выпавших осадков за период времени, мм. При наведении курсора мыши на число - период времени, за который выпало указанное количество осадков.
R24 - Количество осадков - Количество выпавших осадков за 24 часа, мм.
S - Снежный покров - Высота снежного покрова, см. При наведении курсора мыши на число - состояние снежного покрова и степень покрытия местности в баллах.